IRIDIUM 106 1 41917U 17003A 26071.60562686 .00000107 00000+0 31271-4 0 9993 2 41917 86.3976 128.9435 0002131 106.7175 253.4255 14.34217170479364 IRIDIUM 103 1 41918U 17003B 26071.59294221 .00000176 00000+0 55633-4 0 9993 2 41918 86.3976 128.8490 0001978 88.1781 271.9641 14.34217480479389 IRIDIUM 109 1 41919U 17003C 26071.59928523 .00000019 00000+0 -40869-6 0 9997 2 41919 86.3974 128.9039 0002095 95.1208 265.0227 14.34217637479356 IRIDIUM 102 1 41920U 17003D 26071.63734138 .00000043 00000+0 81697-5 0 9990 2 41920 86.3969 128.8139 0002277 95.9993 264.1462 14.34217724479441 IRIDIUM 105 1 41921U 17003E 26071.60272792 .00000174 00000+0 54714-4 0 9995 2 41921 86.3917 97.2739 0002201 91.6748 268.4700 14.34401677481298 IRIDIUM 104 1 41922U 17003F 26071.58025845 -.00000025 00000+0 -15972-4 0 9998 2 41922 86.3977 128.8786 0002179 87.6145 272.5300 14.34217235479427 IRIDIUM 114 1 41923U 17003G 26071.58659823 .00000237 00000+0 77509-4 0 9995 2 41923 86.3974 128.8596 0002132 90.5697 269.5743 14.34218632479405 IRIDIUM 108 1 41924U 17003H 26071.61488923 .00000041 00000+0 77472-5 0 9994 2 41924 86.3912 97.1583 0002371 94.5547 265.5919 14.34217184481264 IRIDIUM 112 1 41925U 17003J 26071.57391537 .00000123 00000+0 37003-4 0 9990 2 41925 86.3972 128.7115 0002142 92.1467 267.9974 14.34217695479423 IRIDIUM 111 1 41926U 17003K 26071.63099789 -.00000002 00000+0 -77630-5 0 9991 2 41926 86.3972 128.7557 0001985 94.7736 265.3686 14.34217613479416 IRIDIUM 113 1 42803U 17039A 26071.54119778 .00000448 00000+0 15309-3 0 9991 2 42803 86.4030 2.5603 0002243 79.1942 280.9506 14.34207805457335 IRIDIUM 123 1 42804U 17039B 26071.44313620 .00000042 00000+0 78990-5 0 9990 2 42804 86.3979 34.0534 0002045 85.6114 274.5315 14.34217725456083 IRIDIUM 120 1 42805U 17039C 26071.53485190 .00000036 00000+0 58390-5 0 9998 2 42805 86.4017 2.3582 0002126 89.0707 271.0733 14.34217739457324 IRIDIUM 115 1 42806U 17039D 26071.54071411 -.00000286 00000+0 -90937-4 0 9998 2 42806 86.4552 2.4704 0001811 89.7929 270.3479 14.43278310460324 IRIDIUM 118 1 42807U 17039E 26071.40508078 .00000292 00000+0 97295-4 0 9997 2 42807 86.3978 34.0670 0002212 84.5510 275.5938 14.34217793456076 IRIDIUM 117 1 42808U 17039F 26071.42410765 -.00000200 00000+0 -78628-4 0 9995 2 42808 86.3978 34.0181 0001933 85.1563 274.9853 14.34216986456104 IRIDIUM 126 1 42809U 17039G 26071.44947861 -.00000100 00000+0 -42699-4 0 9998 2 42809 86.3978 34.0571 0002027 82.4321 277.7105 14.34217236456082 IRIDIUM 124 1 42810U 17039H 26071.68281083 .00000461 00000+0 13104-3 0 9999 2 42810 86.4527 330.7261 0002063 85.0668 275.0769 14.43277410461195 IRIDIUM 128 1 42811U 17039J 26071.50998497 .00000041 00000+0 74701-5 0 9991 2 42811 86.3914 65.5635 0002134 95.0687 265.0752 14.34217529456127 IRIDIUM 121 1 42812U 17039K 26071.39873800 .00000050 00000+0 10849-4 0 9991 2 42812 86.3981 34.1047 0002236 88.6843 271.4609 14.34217853455958 IRIDIUM 133 1 42955U 17061A 26071.54169780 .00000008 00000+0 -40956-5 0 9993 2 42955 86.3918 65.6661 0002062 90.1853 269.9579 14.34217526440929 IRIDIUM 100 1 42956U 17061B 26071.46558659 .00000040 00000+0 70637-5 0 9996 2 42956 86.3917 65.6187 0002145 89.1383 271.0059 14.34217613440913 IRIDIUM 122 1 42957U 17061C 26071.50364030 .00000066 00000+0 16682-4 0 9997 2 42957 86.3914 65.6024 0002065 87.9023 272.2409 14.34217648440920 IRIDIUM 129 1 42958U 17061D 26071.52901265 .00000037 00000+0 61791-5 0 9997 2 42958 86.3917 65.6580 0002424 83.0791 277.0680 14.34217588440948 IRIDIUM 119 1 42959U 17061E 26071.49729648 .00000177 00000+0 56298-4 0 9997 2 42959 86.3916 65.6666 0002154 84.6516 275.4925 14.34219203440956 IRIDIUM 107 1 42960U 17061F 26071.51632633 .00000035 00000+0 53447-5 0 9996 2 42960 86.3917 65.6795 0001854 89.0764 271.0644 14.34217615440968 IRIDIUM 132 1 42961U 17061G 26071.52266928 .00000014 00000+0 -21167-5 0 9990 2 42961 86.3917 65.6570 0001995 90.4308 269.7116 14.34217398440962 IRIDIUM 136 1 42962U 17061H 26071.48461394 .00000061 00000+0 14660-4 0 9990 2 42962 86.3920 65.6791 0002108 86.9020 273.2417 14.34217788440978 IRIDIUM 139 1 42963U 17061J 26071.56072578 .00000028 00000+0 30733-5 0 9995 2 42963 86.3920 65.7076 0002146 90.6652 269.4790 14.34217671440995 IRIDIUM 125 1 42964U 17061K 26071.47827001 .00000073 00000+0 19103-4 0 9992 2 42964 86.3924 65.8016 0001790 77.3541 282.7855 14.34217985440996 IRIDIUM 135 1 43070U 17083A 26071.52216122 .00000203 00000+0 65272-4 0 9990 2 43070 86.4027 2.4106 0002191 83.6786 276.4659 14.34216782430292 IRIDIUM 138 1 43071U 17083B 26071.26846317 .00000007 00000+0 -46106-5 0 9996 2 43071 86.4037 2.1979 0002185 73.6452 286.4984 14.34217490430245 IRIDIUM 116 1 43072U 17083C 26071.30651914 .00000060 00000+0 14191-4 0 9995 2 43072 86.4024 2.4888 0002210 94.1519 265.9929 14.34217288430285 IRIDIUM 130 1 43073U 17083D 26071.55387912 .00000042 00000+0 77730-5 0 9996 2 43073 86.4033 2.6509 0001934 91.1041 269.0377 14.34217813430261 IRIDIUM 151 1 43074U 17083E 26071.73781490 -.00000027 00000+0 -16686-4 0 9993 2 43074 86.4025 2.3643 0002139 85.5625 274.5816 14.34217454430318 IRIDIUM 134 1 43075U 17083F 26071.35725923 .00000021 00000+0 32737-6 0 9990 2 43075 86.4026 2.5295 0002035 87.0497 273.0932 14.34217555430229 IRIDIUM 137 1 43076U 17083G 26071.50948196 .00000054 00000+0 12294-4 0 9997 2 43076 86.4029 2.5569 0002498 94.0253 266.1229 14.34217983430315 IRIDIUM 141 1 43077U 17083H 26071.71244536 .00000181 00000+0 57585-4 0 9991 2 43077 86.4023 2.3083 0002176 82.7810 277.3633 14.34218003430345 IRIDIUM 153 1 43078U 17083J 26071.24600637 .00000328 00000+0 11007-3 0 9999 2 43078 86.4011 331.0162 0002009 78.7101 281.4321 14.34220804431383 IRIDIUM 131 1 43079U 17083K 26071.35091699 .00000168 00000+0 52947-4 0 9995 2 43079 86.4029 2.6382 0002257 82.9317 277.2136 14.34218067430226 IRIDIUM 144 1 43249U 18030A 26071.25235501 .00000019 00000+0 -99452-7 0 9999 2 43249 86.4007 330.9452 0002091 89.1312 271.0123 14.34217596416246 IRIDIUM 149 1 43250U 18030B 26071.67730886 .00000156 00000+0 48637-4 0 9990 2 43250 86.4004 330.7359 0002144 83.8064 276.3376 14.34216529416325 IRIDIUM 157 1 43251U 18030C 26071.69633583 .00000121 00000+0 36115-4 0 9999 2 43251 86.4009 330.7788 0002097 82.9534 277.1901 14.34217739416301 IRIDIUM 140 1 43252U 18030D 26071.71536376 .00000006 00000+0 -48172-5 0 9995 2 43252 86.4002 330.7835 0001924 86.1734 273.9682 14.34217447416366 IRIDIUM 145 1 43253U 18030E 26071.63290332 .00000221 00000+0 71724-4 0 9992 2 43253 86.4007 330.7904 0002041 95.0688 265.0741 14.34215497416289 IRIDIUM 146 1 43254U 18030F 26071.68365082 .00000094 00000+0 26606-4 0 9990 2 43254 86.4002 330.7816 0002166 88.8375 271.3069 14.34217921416308 IRIDIUM 148 1 43255U 18030G 26071.72170660 .00000010 00000+0 -35460-5 0 9990 2 43255 86.3999 330.8071 0002042 85.9811 274.1618 14.34217472416349 IRIDIUM 142 1 43256U 18030H 26071.68999326 .00000254 00000+0 83649-4 0 9994 2 43256 86.4005 330.7136 0002042 93.2109 266.9320 14.34217972416302 IRIDIUM 150 1 43257U 18030J 26071.65827856 .00000239 00000+0 78111-4 0 9991 2 43257 86.4008 330.8399 0002059 85.4677 274.6754 14.34216657416327 IRIDIUM 143 1 43258U 18030K 26071.63925264 .00000028 00000+0 29459-5 0 9990 2 43258 86.4009 330.9364 0002066 90.5117 269.6316 14.34217715416252 IRIDIUM 161 1 43478U 18047C 26071.59114681 .00000374 00000+0 10516-3 0 9996 2 43478 86.4497 128.8708 0002477 88.0041 272.1444 14.43276125411208 IRIDIUM 152 1 43479U 18047D 26071.61197038 .00000124 00000+0 37387-4 0 9996 2 43479 86.3970 128.7225 0002213 91.0929 269.0521 14.34217095408640 IRIDIUM 147 1 43480U 18047E 26071.61831314 .00000188 00000+0 60089-4 0 9995 2 43480 86.3968 128.7232 0002256 98.8240 261.3211 14.34217486408640 IRIDIUM 110 1 43481U 18047F 26071.62465655 .00000012 00000+0 -26817-5 0 9997 2 43481 86.3975 128.8099 0002425 85.4607 274.6865 14.34217586408630 IRIDIUM 162 1 43482U 18047G 26071.58484361 .00000389 00000+0 10952-3 0 9995 2 43482 86.4494 128.7658 0002139 94.8456 265.2989 14.43277410411196 IRIDIUM 160 1 43569U 18061A 26071.57049189 .00000097 00000+0 27518-4 0 9994 2 43569 86.3912 97.2103 0002341 90.7538 269.3926 14.34217816399524 IRIDIUM 166 1 43570U 18061B 26071.59586204 .00000085 00000+0 23178-4 0 9997 2 43570 86.3912 97.1515 0002241 95.4723 264.6729 14.34217799399551 IRIDIUM 158 1 43571U 18061C 26071.56414904 -.00000026 00000+0 -16255-4 0 9997 2 43571 86.3912 97.1745 0001969 89.8810 270.2611 14.34216943399516 IRIDIUM 165 1 43572U 18061D 26071.58951920 .00000043 00000+0 82463-5 0 9996 2 43572 86.3914 97.2088 0002235 96.0618 264.0833 14.34217490399541 IRIDIUM 155 1 43573U 18061E 26071.55146390 .00000022 00000+0 79579-6 0 9993 2 43573 86.3915 97.0985 0002087 94.5847 265.5588 14.34217405399504 IRIDIUM 154 1 43574U 18061F 26071.60220487 -.00000077 00000+0 -34582-4 0 9995 2 43574 86.3914 97.2059 0002187 97.7736 262.3708 14.34217955399566 IRIDIUM 163 1 43575U 18061G 26071.58317625 .00000042 00000+0 79062-5 0 9997 2 43575 86.3912 97.1323 0002164 91.1262 269.0182 14.34217612399532 IRIDIUM 156 1 43576U 18061H 26071.55780588 -.00000025 00000+0 -15871-4 0 9997 2 43576 86.3912 97.1500 0001960 96.2748 263.8671 14.34217175399526 IRIDIUM 164 1 43577U 18061J 26071.60854654 .00000064 00000+0 15898-4 0 9990 2 43577 86.3910 97.1679 0002448 98.1273 262.0201 14.34218074399572 IRIDIUM 159 1 43578U 18061K 26071.57683390 .00000012 00000+0 -27045-5 0 9996 2 43578 86.3911 97.1195 0002218 89.5290 270.6160 14.34217570399530 IRIDIUM 180 1 43922U 19002A 26071.43679362 .00000009 00000+0 -37955-5 0 9991 2 43922 86.3976 34.0169 0002159 84.4790 275.6652 14.34217507375128 IRIDIUM 176 1 43923U 19002B 26071.44095016 .00000775 00000+0 11909-3 0 9999 2 43923 86.6100 33.9716 0002549 90.7994 269.3515 14.72245297385012 IRIDIUM 168 1 43924U 19002C 26071.43045264 .00000363 00000+0 12271-3 0 9995 2 43924 86.3980 34.0938 0002159 86.5558 273.5885 14.34218457375102 IRIDIUM 173 1 43925U 19002D 26071.41776553 .00000126 00000+0 37962-4 0 9998 2 43925 86.3978 33.9920 0002074 84.4501 275.6931 14.34217803375086 IRIDIUM 169 1 43926U 19002E 26071.50016219 .00000219 00000+0 65152-4 0 9990 2 43926 86.4174 65.6101 0001513 84.0585 276.0786 14.38606377376327 IRIDIUM 172 1 43927U 19002F 26071.62072767 .00000188 00000+0 60200-4 0 9998 2 43927 86.3976 33.9144 0002324 84.7186 275.4275 14.34217891375125 IRIDIUM 175 1 43928U 19002G 26071.70827654 .00001126 00000+0 17462-3 0 9995 2 43928 86.1537 331.2291 0002721 103.7017 256.4502 14.72236503385047 IRIDIUM 171 1 43929U 19002H 26071.39239541 .00000063 00000+0 15264-4 0 9991 2 43929 86.3988 34.3059 0002146 91.7855 268.3586 14.34217888375080 IRIDIUM 170 1 43930U 19002J 26071.37916049 .00001312 00000+0 20426-3 0 9999 2 43930 86.6097 34.0005 0002631 88.1148 272.0370 14.72242751385014 IRIDIUM 167 1 43931U 19002K 26071.38605209 -.00000262 00000+0 -10067-3 0 9999 2 43931 86.3977 34.0347 0001882 93.1937 266.9474 14.34216608375080 IRIDIUM 181 1 56726U 23068S 26071.59993941 .00000195 00000+0 51830-4 0 9995 2 56726 86.4450 97.1815 0002605 93.0753 267.0746 14.43308381148501 IRIDIUM 177 1 56727U 23068T 26071.58470065 .00001805 00000+0 23417-3 0 9990 2 56727 86.2006 14.6489 0002258 75.2653 284.8818 14.80218272152077 IRIDIUM 174 1 56728U 23068U 26071.36679745 .00001377 00000+0 21444-3 0 9995 2 56728 86.6105 34.1434 0002565 79.7155 280.4351 14.72257382151772 IRIDIUM 178 1 56729U 23068V 26071.50618089 .00000633 00000+0 79848-4 0 9992 2 56729 86.6488 65.7590 0002501 98.7639 261.3866 14.80228401152069 IRIDIUM 179 1 56730U 23068W 26071.50080066 .00001330 00000+0 17167-3 0 9992 2 56730 86.6723 74.4611 0002267 94.8997 265.2483 14.80227788152062